Location: Waco, TX
(31.5480°N, 97.1670°W)
Time: 22:25:47
(UTC-05:00)

ISS - Pass Details

Date: 22 May 2017
Orbit: 401 x 408 km, 51.6° (Epoch: 24 June)

Event Time Altitude Azimuth Distance (km) Brightness Sun altitude
Rises 06:00:14 0° 323° (NW) 2,322 -0.1 -6.1°
Reaches altitude 10° 06:02:26 10° 332° (NNW) 1,458 -1.0 -5.7°
Maximum altitude 06:05:28 35° 41° (NE) 667 -1.9 -5.1°
Drops below altitude 10° 06:08:29 10° 109° (ESE) 1,447 -0.3 -4.6°
Sets 06:10:39 0° 119° (ESE) 2,301 0.5 -4.2°
